When you browse on this site, cookies collect data to enhance your experience and personalize the content and advertising you see.
Visit our Privacy Policy to learn more. By continuing to use the site, you agree to this use of cookies and data.
  • In Latvia
  • List of Countries
  • For 7 days
  • Water Temperature
  • Satellite Maps
  • Weather Map
  • Weather Widgets
  • user-avatar
    Login

    Hourly Weather Madona

    Today, 21 July, Sunday

    Time Temperature Precipitation Wind Pressure Humidity
    00:00 +15°C° 0 mm 1 mps 750 mmHg 89%
    01:00 +14°C° 0 mm 1 mps 750 mmHg 90%
    02:00 +12°C° 0 mm 0 mps 750 mmHg 92%
    03:00 +13°C° 0 mm 0 mps 750 mmHg 92%
    04:00 +13°C° 0 mm 0 mps 750 mmHg 91%
    05:00 +13°C° 0 mm 0 mps 750 mmHg 90%
    06:00 +15°C° 0 mm 0 mps 750 mmHg 82%
    07:00 +19°C° 0 mm 1 mps 750 mmHg 74%
    08:00 +22°C° 0 mm 1 mps 750 mmHg 66%
    09:00 +23°C° 0 mm 1 mps 750 mmHg 59%
    10:00 +25°C° 0 mm 1 mps 750 mmHg 53%
    11:00 +26°C° 0 mm 1 mps 750 mmHg 46%
    12:00 +27°C° 0 mm 1 mps 750 mmHg 44%
    13:00 +27°C° 0 mm 1 mps 750 mmHg 42%
    14:00 +28°C° 0 mm 2 mps 750 mmHg 39%
    15:00 +27°C° 0 mm 2 mps 749 mmHg 41%
    16:00 +27°C° 0 mm 2 mps 749 mmHg 43%
    17:00 +27°C° 0 mm 2 mps 749 mmHg 45%
    18:00 +25°C° 0 mm 2 mps 749 mmHg 55%
    19:00 +23°C° 0 mm 2 mps 748 mmHg 65%
    20:00 +20°C° 0 mm 2 mps 748 mmHg 74%
    21:00 +20°C° 0 mm 1 mps 748 mmHg 77%
    22:00 +19°C° 0 mm 1 mps 748 mmHg 80%
    23:00 +18°C° 0 mm 1 mps 749 mmHg 82%

    Tomorrow, 22 July, Monday

    Time Temperature Precipitation Wind Pressure Humidity
    00:00 +18°C° 0 mm 1 mps 748 mmHg 82%
    01:00 +16°C° 0 mm 1 mps 748 mmHg 82%
    02:00 +16°C° 0 mm 1 mps 748 mmHg 82%
    03:00 +16°C° 0.2 mm 1 mps 748 mmHg 84%
    04:00 +16°C° 0.2 mm 1 mps 748 mmHg 87%
    05:00 +15°C° 0.2 mm 1 mps 748 mmHg 90%
    06:00 +16°C° 0.6 mm 1 mps 748 mmHg 92%
    07:00 +16°C° 0.6 mm 1 mps 748 mmHg 95%
    08:00 +16°C° 0.6 mm 1 mps 748 mmHg 97%
    09:00 +18°C° 0.6 mm 1 mps 748 mmHg 97%
    10:00 +18°C° 0.6 mm 1 mps 747 mmHg 97%
    11:00 +18°C° 0.6 mm 1 mps 747 mmHg 97%
    12:00 +18°C° 0.7 mm 1 mps 747 mmHg 97%
    13:00 +18°C° 0.7 mm 1 mps 747 mmHg 97%
    14:00 +19°C° 0.7 mm 1 mps 747 mmHg 97%
    15:00 +19°C° 0.6 mm 1 mps 747 mmHg 97%
    16:00 +19°C° 0.6 mm 1 mps 747 mmHg 96%
    17:00 +19°C° 0.6 mm 1 mps 747 mmHg 96%
    18:00 +18°C° 0.4 mm 1 mps 747 mmHg 96%
    19:00 +18°C° 0.4 mm 1 mps 747 mmHg 97%
    20:00 +15°C° 0.4 mm 0 mps 747 mmHg 97%
    21:00 +16°C° 0.1 mm 1 mps 747 mmHg 97%
    22:00 +16°C° 0.1 mm 1 mps 747 mmHg 96%
    23:00 +16°C° 0.1 mm 1 mps 747 mmHg 96%

    Day after tomorrow, 23 July, Tuesday

    Time Temperature Precipitation Wind Pressure Humidity
    00:00 +15°C° 0 mm 1 mps 747 mmHg 96%
    01:00 +15°C° 0 mm 1 mps 747 mmHg 97%
    02:00 +15°C° 0 mm 2 mps 747 mmHg 97%
    03:00 +15°C° 0 mm 2 mps 748 mmHg 98%
    04:00 +15°C° 0 mm 2 mps 748 mmHg 98%
    05:00 +15°C° 0 mm 2 mps 748 mmHg 98%
    06:00 +16°C° 0 mm 2 mps 748 mmHg 95%
    07:00 +18°C° 0 mm 2 mps 748 mmHg 91%
    08:00 +19°C° 0 mm 2 mps 748 mmHg 88%
    09:00 +21°C° 0.1 mm 2 mps 748 mmHg 74%
    10:00 +24°C° 0.1 mm 2 mps 748 mmHg 61%
    11:00 +26°C° 0.1 mm 2 mps 748 mmHg 47%
    12:00 +26°C° 0 mm 2 mps 748 mmHg 45%
    13:00 +27°C° 0 mm 2 mps 748 mmHg 43%
    14:00 +27°C° 0 mm 2 mps 748 mmHg 41%
    15:00 +27°C° 0 mm 2 mps 748 mmHg 44%
    16:00 +26°C° 0 mm 2 mps 748 mmHg 47%
    17:00 +26°C° 0 mm 2 mps 748 mmHg 51%
    18:00 +24°C° 0.1 mm 2 mps 748 mmHg 62%
    19:00 +21°C° 0.1 mm 2 mps 748 mmHg 74%
    20:00 +19°C° 0.1 mm 2 mps 748 mmHg 85%
    21:00 +18°C° 0 mm 2 mps 748 mmHg 88%
    22:00 +17°C° 0 mm 2 mps 749 mmHg 91%
    23:00 +16°C° 0 mm 2 mps 749 mmHg 94%

    24 July, Wednesday

    Time Temperature Precipitation Wind Pressure Humidity
    00:00 +16°C° 0 mm 2 mps 749 mmHg 95%
    01:00 +15°C° 0 mm 1 mps 749 mmHg 96%
    02:00 +15°C° 0 mm 1 mps 749 mmHg 96%
    03:00 +15°C° 0 mm 1 mps 749 mmHg 96%
    04:00 +15°C° 0 mm 1 mps 749 mmHg 96%
    05:00 +15°C° 0 mm 1 mps 749 mmHg 96%
    06:00 +18°C° 0 mm 1 mps 749 mmHg 90%
    07:00 +19°C° 0 mm 1 mps 750 mmHg 84%
    08:00 +21°C° 0 mm 1 mps 750 mmHg 78%
    09:00 +23°C° 0 mm 1 mps 750 mmHg 69%
    10:00 +25°C° 0 mm 1 mps 750 mmHg 61%
    11:00 +26°C° 0 mm 1 mps 750 mmHg 52%
    12:00 +27°C° 0 mm 1 mps 750 mmHg 51%
    13:00 +27°C° 0 mm 2 mps 750 mmHg 50%
    14:00 +27°C° 0 mm 2 mps 750 mmHg 48%
    15:00 +27°C° 0 mm 2 mps 750 mmHg 51%
    16:00 +27°C° 0 mm 2 mps 750 mmHg 54%
    17:00 +26°C° 0 mm 2 mps 750 mmHg 56%
    18:00 +25°C° 0 mm 2 mps 750 mmHg 64%
    19:00 +23°C° 0 mm 2 mps 750 mmHg 71%
    20:00 +21°C° 0 mm 2 mps 750 mmHg 79%
    21:00 +19°C° 0 mm 2 mps 751 mmHg 82%
    22:00 +18°C° 0 mm 2 mps 751 mmHg 86%
    23:00 +17°C° 0 mm 2 mps 752 mmHg 89%

    25 July, Thursday

    Time Temperature Precipitation Wind Pressure Humidity
    00:00 +17°C° 0 mm 2 mps 752 mmHg 91%
    01:00 +16°C° 0 mm 2 mps 752 mmHg 93%
    02:00 +16°C° 0 mm 1 mps 752 mmHg 94%
    03:00 +16°C° 0 mm 1 mps 752 mmHg 95%
    04:00 +16°C° 0 mm 1 mps 752 mmHg 95%
    05:00 +16°C° 0 mm 1 mps 752 mmHg 95%
    06:00 +19°C° 0 mm 1 mps 753 mmHg 87%
    07:00 +21°C° 0 mm 1 mps 753 mmHg 79%
    08:00 +23°C° 0 mm 1 mps 753 mmHg 71%
    09:00 +24°C° 0 mm 1 mps 754 mmHg 64%
    10:00 +26°C° 0 mm 2 mps 754 mmHg 57%
    11:00 +27°C° 0 mm 2 mps 754 mmHg 50%
    12:00 +28°C° 0 mm 2 mps 754 mmHg 48%
    13:00 +28°C° 0 mm 2 mps 754 mmHg 46%
    14:00 +29°C° 0 mm 2 mps 754 mmHg 43%
    15:00 +29°C° 0 mm 2 mps 753 mmHg 46%
    16:00 +28°C° 0 mm 2 mps 753 mmHg 49%
    17:00 +28°C° 0 mm 2 mps 753 mmHg 52%
    18:00 +26°C° 0 mm 1 mps 753 mmHg 60%
    19:00 +25°C° 0 mm 1 mps 753 mmHg 69%
    20:00 +23°C° 0 mm 1 mps 753 mmHg 77%
    21:00 +22°C° 0 mm 1 mps 754 mmHg 81%
    22:00 +21°C° 0 mm 1 mps 754 mmHg 86%
    23:00 +20°C° 0 mm 1 mps 754 mmHg 90%

    26 July, Friday

    Time Temperature Precipitation Wind Pressure Humidity
    00:00 +19°C° 0 mm 1 mps 754 mmHg 91%
    01:00 +19°C° 0 mm 1 mps 754 mmHg 92%
    02:00 +19°C° 0 mm 1 mps 754 mmHg 93%
    03:00 +19°C° 0 mm 1 mps 754 mmHg 93%
    04:00 +19°C° 0 mm 1 mps 754 mmHg 92%
    05:00 +19°C° 0 mm 1 mps 754 mmHg 92%
    06:00 +21°C° 0 mm 1 mps 754 mmHg 83%
    07:00 +23°C° 0 mm 1 mps 755 mmHg 75%
    08:00 +25°C° 0 mm 1 mps 755 mmHg 66%
    09:00 +27°C° 0 mm 1 mps 754 mmHg 61%
    10:00 +28°C° 0 mm 1 mps 754 mmHg 55%
    11:00 +29°C° 0 mm 1 mps 754 mmHg 50%
    12:00 +29°C° 0 mm 1 mps 754 mmHg 51%
    13:00 +29°C° 0 mm 1 mps 754 mmHg 51%
    14:00 +29°C° 0 mm 1 mps 753 mmHg 52%
    15:00 +29°C° 0 mm 1 mps 753 mmHg 55%
    16:00 +29°C° 0 mm 1 mps 753 mmHg 57%
    17:00 +28°C° 0 mm 1 mps 752 mmHg 60%
    18:00 +27°C° 0 mm 1 mps 752 mmHg 66%
    19:00 +25°C° 0 mm 1 mps 752 mmHg 72%
    20:00 +24°C° 0 mm 1 mps 752 mmHg 78%
    21:00 +23°C° 0 mm 1 mps 752 mmHg 78%
    22:00 +22°C° 0 mm 1 mps 752 mmHg 78%
    23:00 +21°C° 0 mm 1 mps 752 mmHg 78%
    Show more